sat.trackr.live / text

‹ back to catalog

STARLINK-11424 [DTC]

NORAD 61949 · 2024-209L

PAYLOAD ACTIVE UNKNOWN

§ Identity

Operator
Country
US
Launch date
2024-11-14
Launch site
AFWTR
Launch vehicle
Mass (kg)
RCS (m²)

Purposes: comms

External: N2YO · Heavens-Above · Gunter

§ Orbital elements

Epoch: 2026-09-21T21:09:44.898624Z

Period
91.74 min
Inclination
53.1575°
Eccentricity
0.0000890
Mean motion
15.69713081 rev/d
Perigee alt
359.1 km
Apogee alt
360.3 km
Semi-major
6,737.9 km
B*
1.0892e-3
RAAN
123.9909°
Arg perigee
90.2683°
Mean anomaly
269.8437°
Rev number
10,749

§ Raw data

STARLINK-11424 [DTC]1 61949U 24209L   26264.88176966  .00133521  00000+0  10892-2 0  99932 61949  53.1575 123.9909 0000890  90.2683 269.8437 15.69713081107496

JSON: /api/v1/satellites/61949 · /tle

For live sub-satellite position, see the globe view (requires WebGL).

§ Visibility from observer

Set your observer location to see the next 7 days of passes ≥ 10°. The values pass through the URL so the page stays shareable.

No JS? Fill the form by hand. The geolocation button needs JavaScript.